Baton Rouge, LA

1:47 AM CDT on June 25, 2017 (GMT -0500)
Baton Rouge Metro-Ryan

Weather History for KBTR - August, 2013

Change the Weather History Date:

Saturday, August 3, 2013

  Actual Average Record
Temperature  
Mean Temperature 85 °F 83 °F  
Max Temperature 94 °F 93 °F 99 °F (1947)
Min Temperature 75 °F 74 °F 67 °F (1965)
Degree Days  
Heating Degree Days 0 0  
Month to date heating degree days 0 0  
Since 1 June heating degree days 0 0  
Since 1 July heating degree days 0 0  
Cooling Degree Days 20 18  
Month to date cooling degree days 59 54  
Year to date cooling degree days 1498 1659  
Since 1 June cooling degree days 1075 1094  
Growing Degree Days 34 (Base 50)    
Moisture  
Dew Point 75 °F    
Average Humidity 72    
Maximum Humidity 94    
Minimum Humidity 49    
Precipitation  
Precipitation 0.00 in 0.19 in 3.45 in (1944)
Month to date precipitation 0.05 0.56  
Year to date precipitation 49.35 36.45  
Snow  
Snow 0.00 in - - ()
Month to date snowfall 0.0  
Since 1 June snowfall 0.0  
Since 1 July snowfall 0.0  
Snow Depth 0.00 in    
Sea Level Pressure  
Sea Level Pressure 30.02 in    
Wind  
Wind Speed 2 mph (West)    
Max Wind Speed 10 mph    
Max Gust Speed 13 mph    
Visibility 10 miles    
Events      
T = Trace of Precipitation, MM = Missing Value Source: NWS Daily Summary

Daily Weather History Graph

Daily Weather History Graph

Search for Another Location

Airport or City:

Trip Planner

Search our weather history database for the weather conditions in past years. The results will help you decide how hot, cold, wet, or windy it might be!

Date:

Astronomy

Aug. 03, 2013 Rise Set
Actual Time 6:24 AM CDT 7:57 PM CDT
Civil Twilight 5:58 AM CDT 8:22 PM CDT
Nautical Twilight 5:26 AM CDT 8:54 PM CDT
Astronomical Twilight 4:54 AM CDT 9:26 PM CDT
Moon 3:36 AM CDT (8/3) 5:37 PM CDT (8/3)
Length of Visible Light 14h 24m
Length of Day
13h 32m
Waning Crescent, 9% of the Moon is Illuminated
Aug 3
Waning Crescent
Aug 6
New
Aug 14
First Quarter
Aug 20
Full
Aug 28
Last Quarter

Hourly Weather History & Observations

Time (CDT) Temp. Heat Index Dew Point Humidity Pressure Visibility Wind Dir Wind Speed Gust Speed Precip Events Conditions
12:53 AM 79.0 °F - 75.0 °F 88% 30.01 in 10.0 mi SSE 5.8 mph - N/A   Clear
1:53 AM 79.0 °F - 75.0 °F 88% 30.00 in 10.0 mi Calm Calm - N/A   Clear
2:53 AM 77.0 °F - 75.0 °F 94% 29.99 in 9.0 mi Calm Calm - N/A   Clear
3:53 AM 77.0 °F - 73.9 °F 90% 29.99 in 10.0 mi Calm Calm - N/A   Clear
4:53 AM 77.0 °F - 73.9 °F 90% 29.99 in 10.0 mi Calm Calm - N/A   Clear
5:53 AM 75.9 °F - 73.9 °F 94% 30.00 in 8.0 mi Calm Calm - N/A   Clear
6:53 AM 75.9 °F - 73.9 °F 94% 30.01 in 5.0 mi Calm Calm - N/A   Clear
7:53 AM 81.0 °F 87.9 °F 77.0 °F 88% 30.02 in 8.0 mi Calm Calm - N/A   Partly Cloudy
8:53 AM 84.0 °F 93.7 °F 77.0 °F 79% 30.04 in 10.0 mi West 4.6 mph - N/A   Partly Cloudy
9:53 AM 86.0 °F 96.9 °F 77.0 °F 74% 30.05 in 10.0 mi West 6.9 mph - N/A   Partly Cloudy
10:17 AM 86.0 °F 96.9 °F 77.0 °F 74% 30.07 in 10.0 mi West 5.8 mph - N/A   Mostly Cloudy
10:53 AM 88.0 °F 98.5 °F 75.9 °F 67% 30.07 in 10.0 mi WNW 3.5 mph - N/A   Mostly Cloudy
11:53 AM 89.1 °F 100.2 °F 75.9 °F 65% 30.06 in 10.0 mi West 6.9 mph - N/A   Mostly Cloudy
12:53 PM 91.0 °F 100.4 °F 73.9 °F 57% 30.05 in 10.0 mi Variable 4.6 mph - N/A   Mostly Cloudy
1:53 PM 93.0 °F 103.2 °F 73.9 °F 54% 30.04 in 10.0 mi NNW 4.6 mph - N/A   Mostly Cloudy
2:53 PM 93.9 °F 103.4 °F 73.0 °F 51% 30.03 in 10.0 mi Calm Calm - N/A   Mostly Cloudy
3:53 PM 93.0 °F 101.9 °F 73.0 °F 52% 30.01 in 10.0 mi NW 5.8 mph - N/A   Scattered Clouds
4:53 PM 93.0 °F 100.1 °F 71.1 °F 49% 30.01 in 10.0 mi NNW 3.5 mph - N/A   Scattered Clouds
5:53 PM 91.0 °F 99.3 °F 73.0 °F 55% 29.99 in 10.0 mi Calm Calm - N/A   Scattered Clouds
6:53 PM 91.0 °F 99.3 °F 73.0 °F 55% 30.00 in 10.0 mi Calm Calm - N/A   Clear
7:53 PM 86.0 °F 95.1 °F 75.0 °F 70% 30.01 in 10.0 mi Calm Calm - N/A   Clear
8:53 PM 82.9 °F 91.8 °F 77.0 °F 82% 30.03 in 10.0 mi Calm Calm - N/A   Clear
9:53 PM 82.9 °F 90.8 °F 75.9 °F 79% 30.04 in 10.0 mi SSE 4.6 mph - N/A   Clear
10:53 PM 82.0 °F 89.4 °F 75.9 °F 82% 30.05 in 10.0 mi South 5.8 mph - N/A   Clear
11:53 PM 82.0 °F 89.4 °F 75.9 °F 82% 30.06 in 10.0 mi South 3.5 mph - N/A   Clear